Simultaneous Nadir Overpasses (SNOs) Predictions

Prediction of SNOs between NOAA-20 and PACE Satellite Orbit:

Table of predicted SNOs for the next 14.0 days since TLE Epoch: 9/14/2024
Index Date (NOAA-20) Time (NOAA-20) Lat,Lon (NOAA-20) SZA (NOAA-20 ) Date (PACE) Time (PACE) Lat,Lon (PACE) SZA (PACE ) Distance(km) Time Diff (sec)
1 09/16/2024 06:47:19 79.85, 40.79 79.36 09/16/2024 06:47:03 79.85, 40.84 79.36 0.92 16
2 09/18/2024 10:22:57 -79.92, 166.19 99.71 09/18/2024 10:23:19 -79.92, 166.24 99.72 0.86 22
3 09/18/2024 11:13:36 79.75, -24.83 79.99 09/18/2024 11:12:23 79.74, -24.68 80.00 3.02 73
4 09/20/2024 13:58:34 79.98, -68.29 81.21 09/20/2024 13:59:33 79.98, -68.28 81.19 0.24 59
5 09/20/2024 14:49:12 -79.77, 101.05 99.16 09/20/2024 14:48:36 -79.77, 101.03 99.14 0.38 36
6 09/22/2024 18:24:50 79.87,-133.81 81.84 09/22/2024 18:24:49 79.87,-133.74 81.83 1.24 1
7 09/24/2024 22:00:25 -79.89, -7.83 97.33 09/24/2024 22:00:58 -79.89, -7.93 97.33 2.05 33
8 09/24/2024 22:51:03 79.68, 161.40 82.33 09/24/2024 22:50:01 79.68, 161.33 82.36 1.59 62
9 09/27/2024 01:36:01 79.95, 117.67 83.60 09/27/2024 01:37:06 79.95, 117.57 83.59 2.00 65



Historial Predications of SNOs between NOAA-20 and PACE
